カタログに戻る

STARLINK-30929

運用中通信VLEO
NORAD 58386·PAYLOAD·🇺🇸 United States

打ち上げ Nov 20, 2023 から Vandenberg Space Force Base

Loading…

次のパス (今後24時間)

TLE

最新Source: CelesTrak SupGP

元期: Sep 14, 2026, 20:55 UTC

1 58386C 23178N   26257.87201389  .00023736  00000+0  70098-3 0  2575
2 58386  53.1593 198.3747 0001516  96.2109 100.6195 15.34392167    11

AllMySatでSTARLINK-30929をリアルタイム追跡

Download on the App Store